Regional Weather Roundup
Issued by NWS

Home | Current Version | Previous Version | Text Only | Print | Product List | Glossary Off
Versions: 1 2 3 4 5 6 7 8 9 10 11 12 13 14 15 16 17 18 19 20 21 22 23 24 25 26 27 28 29 30 31 32 33 34 35 36 37 38 39 40 41 42 43 44 45 46 47 48 49 50

000
ASUS43 KDTX 021910
RWRMI
MICHIGAN HOURLY REGIONAL WEATHER ROUNDUP
NATIONAL WEATHER SERVICE DETROIT/PONTIAC MI
300 PM EDT TUE JUN 02 2015

NOTE: "FAIR" INDICATES FEW OR NO CLOUDS BELOW 12,000 FEET WITH NO
SIGNIFICANT WEATHER AND/OR OBSTRUCTION TO VISIBILITY.

MIZ047>049-052>055-059>063-066>070-074>076-081>083-022000-
SOUTHEAST LOWER MICHIGAN

CITY           SKY/WX    TMP DP  RH WIND       PRES   REMARKS
ADRIAN         PTSUNNY   67  51  56 SE9       30.17F
ALMA           MOSUNNY   69  45  43 E5        30.17F
ANN ARBOR      SUNNY     69  47  45 SE10      30.16F
BAD AXE        SUNNY     67  35  30 SE6       30.19F
CARO           SUNNY     70  45  40 SE5       30.16F
DETROIT CITY   SUNNY     68  46  45 NE8G16    30.18F
DETROIT        MOSUNNY   69  46  43 NE8G16    30.18F
FLINT          SUNNY     71  44  37 SE8       30.16F
GROSSE ILE     MOSUNNY   64  55  72 S9        30.17F
HILLSDALE      MOSUNNY   68  47  47 E10       30.16F
HOWELL         SUNNY     69  42  37 E5        30.16F

CITY           SKY/WX    TMP DP  RH WIND       PRES   REMARKS
JACKSON        MOSUNNY   69  49  48 SE7G17    30.15F
LAMBERTVILLE   MOSUNNY   66  50  55 E12       30.18S
LANSING        SUNNY     68  47  46 E12       30.16F
LAPEER         FAIR      68  41  36 SE5       30.17F
MASON          MOSUNNY   67  49  52 E5        30.16F
MONROE         SUNNY     64  54  68 SE8       30.17S
MT. CLEMENS    MOSUNNY   67  44  43 E8        30.15F
PONTIAC        MOSUNNY   69  42  37 NE7       30.16F
PORT HOPE        N/A     55  46  71 N5        30.19F
PORT HURON     SUNNY     66  43  42 NE6       30.18F
TRI CITIES     MOSUNNY   68  43  40 E6        30.18F
MIDLAND        FAIR      69  42  38 SE6       30.17F
TROY           SUNNY     71  41  33 NE6       30.18F
SAGINAW HB     MOSUNNY   70  43  37 NE6       30.16F
$$
MIZ043>046-050>051-056>058-064>065-071>073-077>080-022000-
SOUTHWEST LOWER MICHIGAN

CITY           SKY/WX    TMP DP  RH WIND       PRES   REMARKS
BATTLE CREEK   SUNNY     69  48  47 SE10      30.15F
BENTON HARBOR  SUNNY     63  47  55 N8        30.14F
BIG RAPIDS     SUNNY     69  24  18 SE3       30.15F
COLDWATER      MOSUNNY   68  49  50 E8        30.14F
FREMONT        FAIR      69  28  21 SE7       30.15F
HOLLAND        SUNNY     70  48  45 SE8       30.15F
GRAND RAPIDS   MOSUNNY   68  45  43 SE7       30.16F
IONIA          FAIR      67  46  46 SE9       30.16F
KALAMAZOO      SUNNY     71  47  42 E6        30.15F
LUDINGTON      SUNNY     61  47  60 SW12      30.16F
MARSHALL       MOSUNNY   69  49  48 E9        30.14F
MOUNT PLEASANT MOSUNNY   71  44  37 S9        30.16F
MUSKEGON       MOSUNNY   65  46  50 W9        30.16F
SOUTH HAVEN    SUNNY     65  45  48 NW9       30.14F
$$
MIZ016>042-022000-
NORTHERN LOWER MICHIGAN

CITY           SKY/WX    TMP DP  RH WIND       PRES   REMARKS
ALPENA         SUNNY     67  34  29 SE14      30.19F
BEAVER ISLAND  MOSUNNY   64  30  27 W8        30.18F
BELLAIRE       PTSUNNY   68  31  24 CALM      30.15F
CADILLAC       MOSUNNY   69  31  24 S3        30.15F
CHARLEVOIX     PTSUNNY   60  41  49 NW7       30.20F
FRANKFORT      SUNNY     65  29  26 W8        30.16F
GAYLORD        MOSUNNY   70  29  21 SW6       30.16F
GRAYLING       MOSUNNY   70  33  25 S8        30.16F
HARBOR SPRINGS MOSUNNY   60  41  49 SW6       30.16F
HOUGHTON LAKE  MOSUNNY   69  32  25 S10       30.17F
MANISTEE       SUNNY     63  37  39 NW8       30.16F
OSCODA         SUNNY     65  37  35 E10       30.19F
PELLSTON       MOSUNNY   71  33  24 VRB3      30.16F
ROGERS CITY    SUNNY     63  39  40 E9        30.19F
TRAVERSE CITY  PTSUNNY   68  35  29 NE7       30.14F
$$
MIZ007>008-015-022000-
EASTERN UPPER MICHIGAN

CITY           SKY/WX    TMP DP  RH WIND       PRES   REMARKS
KINROSS        SUNNY     70  28  21 S9G16     30.16F
MACKINAC ISLAN SUNNY     63  32  32 E5        30.17F
NEWBERRY       MOSUNNY   65  37  35 S9G16     30.15F
S. S. MARIE    SUNNY     70  35  27 S6        30.14F
MUNISING         N/A     72  36  26 SW10G22   30.09F
$$
MIZ004>006-011>014-085-022000-
CENTRAL UPPER MICHIGAN

CITY           SKY/WX    TMP DP  RH WIND       PRES   REMARKS
MANISTIQUE     SUNNY     56  36  47 S9        30.17S
ESCANABA       SUNNY     59  45  58 S10       30.13F
MENOMINEE      MOSUNNY   66  43  42 SE15      30.12F
SAWYER-GWINN   SUNNY     70  32  24 SW16G25   30.09F
$$
MIZ001>003-009>011-084-022000-
WESTERN UPPER MICHIGAN

CITY           SKY/WX    TMP DP  RH WIND       PRES   REMARKS
IRON MOUNTAIN  MOSUNNY   72  33  24 S12       30.08F
HOUGHTON       MOSUNNY   68  37  32 E10       30.05F
COPPER HARBOR    N/A     66  26  22 VRB7      30.06F
IRONWOOD       MOSUNNY   72  41  33 S7G21     30.01F
$$

ABBREVIATIONS USED IN REMARKS
   TC - TEMPERATURE IN CELSIUS
  WCI - WIND CHILL INDEX
   HX - HEAT INDEX
  VSB - VISIBILITY



USA.gov is the U.S. government's official web portal to all federal, state and local government web resources and services.